Dewpoint
64 64 64 65 64 63 62 62 62 62 62 60 58 59 60 61 62 62 64 65 65 64
62 62 61 61 60 60 60 59 59 55 52 50 49 50 52 54 51 55 56 57 56 58
60 59 59 57 56 56 56 56 50 47 45 44 44 45 46 48 49 50 51 51 52 50
54 53 52 52 52 53 52 48 45 43 42 42 42 44 45 46 45 45 45 45 45 44
50 50 50 50 50 49 46 45 42 41 41 40 41 42 42 42 42 41 41 42 40 40
47 48 48 47 46 46 43 41 40 39 38 39 39 40 40 39 39 39 40 39 39 38
46 46 45 44 44 42 41 39 39 38 37 37 38 39 39 38 37 37 37 38 39 38
45 43 42 42 42 41 40 40 39 37 37 36 36 36 37 37 36 36 36 36 36 37
43 41 40 40 40 40 40 40 39 38 37 36 35 35 35 36 37 37 35 35 35 35
40 39 39 38 38 38 39 39 40 39 38 36 34 33 33 34 36 35 36 37 37 36
39 38 38 38 38 37 37 36 36 36 34 34 33 32 31 32 33 33 33 33 33 33
38 36 35 35 34 34 33 33 32 32 31 31 29 32 30 30 30 29 29 30 31 31
35 34 32 32 30 30 30 29 29 28 29 30 31 32 30 29 28 27 28 29 29 30
32 31 31 30 29 28 28 28 27 27 28 29 30 32 31 29 27 27 26 27 29 30
Wind_Speed
15 13 12 15 15 15 13 11 10 13 14 16 17 17 15 13 14 16 13 14 15 14
19 19 20 19 17 15 13 13 15 15 16 16 16 15 13 12 15 13 14 14 15 14
20 20 19 18 19 18 17 16 17 15 15 16 16 15 14 14 14 14 15 15 16 15
21 20 21 21 18 18 19 15 17 17 17 18 18 15 14 13 15 14 14 15 16 15
20 20 20 20 19 17 20 19 19 17 17 17 15 14 15 15 15 15 14 15 15 16
19 19 20 19 19 20 21 18 16 17 18 16 17 16 15 15 14 13 13 13 15 15
17 19 19 20 20 19 17 17 16 16 17 18 16 16 15 13 13 12 12 12 12 13
19 16 21 19 16 16 16 15 15 17 18 19 19 16 14 12 12 12 11 12 11 11
19 16 20 16 14 14 14 13 16 17 18 18 16 21 19 15 11 10 11 11 12 9
15 21 13 12 15 13 13 14 16 15 15 17 16 21 22 20 12 13 13 12 11 12
18 13 11 13 12 13 14 16 16 16 16 13 13 18 20 17 12 12 14 14 15 15
16 13 13 12 13 14 15 15 15 14 13 12 12 16 19 16 11 12 13 13 14 16
16 15 12 12 16 15 13 13 11 12 13 12 12 15 17 18 11 13 14 14 15 16
16 14 12 13 13 13 10 11 10 9 10 11 11 11 18 19 14 14 15 15 15 14
Wind_Direction
144 137 132 118 108 103 104 92 73 68 57 45 35 29 15 14 5 351 328 296 282 289
107 106 106 99 96 94 91 80 70 64 62 50 43 35 32 27 14 4 4 5 358 346
90 91 94 93 89 82 75 75 71 63 58 50 43 33 32 29 16 19 15 10 4 4
94 94 91 87 83 83 78 74 68 58 52 46 38 30 33 30 27 26 19 16 8 2
91 88 88 85 81 83 78 66 62 58 54 47 41 40 39 33 29 28 25 22 18 14
74 75 80 82 78 72 74 71 70 65 58 50 44 44 41 41 38 36 28 29 27 17
76 78 67 68 69 74 81 82 76 70 64 54 47 42 40 41 40 36 29 21 21 19
78 74 81 69 69 78 82 85 83 75 63 53 45 34 26 34 35 33 19 11 18 14
92 82 68 77 78 77 79 82 81 75 68 56 43 24 15 10 9 3 8 3 2 1
61 70 78 86 77 78 71 66 68 65 78 63 40 22 11 2 358 0 359 346 350 346
80 71 56 54 63 58 58 58 54 57 51 43 34 21 16 7 5 1 353 354 356 346
81 73 61 63 59 55 55 52 53 46 43 30 21 28 19 11 5 360 355 346 340 334
80 79 73 65 64 51 50 52 47 39 28 26 20 26 16 15 360 354 346 346 339 336
83 80 75 64 65 63 56 52 42 29 22 25 18 6 7 8 2 351 341 333 328 322